| time (UTC) | temp F | wind direction | speed knots | gust knots | rain 1hr in | rain 24hr in | rain mn in | humidity % | barometer mb |
| 20260906190023 | 82 | 24 | 5.2 | 7.0 | 0.00 | 0.00 | 0.00 | 55 | 1017.0 |
| 20260906185023 | 82 | 10 | 4.3 | 8.7 | 0.00 | 0.00 | 0.00 | 57 | 1017.0 |
| 20260906184024 | 81 | 27 | 6.1 | 9.6 | 0.00 | 0.00 | 0.00 | 57 | 1017.1 |
| 20260906183023 | 80 | 22 | 7.8 | 10.4 | 0.00 | 0.00 | 0.00 | 57 | 1017.0 |
| 20260906182023 | 81 | 12 | 6.1 | 9.6 | 0.00 | 0.00 | 0.00 | 58 | 1017.1 |
| 20260906181023 | 80 | 14 | 8.7 | 13.0 | 0.00 | 0.00 | 0.00 | 57 | 1017.1 |
| 20260906180023 | 80 | 23 | 7.0 | 10.4 | 0.00 | 0.00 | 0.00 | 58 | 1017.2 |
| 20260906175044 | 80 | 16 | 8.7 | 11.3 | 0.00 | 0.00 | 0.00 | 58 | 1017.3 |
| 20260906174044 | 80 | 18 | 7.0 | 9.6 | 0.00 | 0.00 | 0.00 | 58 | 1017.3 |
| 20260906173044 | 79 | 28 | 7.0 | 11.3 | 0.00 | 0.00 | 0.00 | 59 | 1017.3 |
| 20260906172024 | 80 | 21 | 7.0 | 11.3 | 0.00 | 0.00 | 0.00 | 59 | 1017.5 |
| 20260906171023 | 79 | 6 | 7.0 | 9.6 | 0.00 | 0.00 | 0.00 | 59 | 1017.5 |
| 20260906170023 | 79 | 31 | 8.7 | 11.3 | 0.00 | 0.00 | 0.00 | 59 | 1017.5 |
| 20260906165024 | 79 | 4 | 7.8 | 10.4 | 0.00 | 0.00 | 0.00 | 60 | 1017.7 |
| 20260906164024 | 79 | 16 | 7.0 | 12.2 | 0.00 | 0.00 | 0.00 | 61 | 1017.8 |
| 20260906163023 | 79 | 18 | 7.0 | 12.2 | 0.00 | 0.00 | 0.00 | 60 | 1017.9 |
| 20260906162104 | 78 | 27 | 5.2 | 10.4 | 0.00 | 0.00 | 0.00 | 61 | 1017.9 |
| 20260906161023 | 77 | 19 | 7.8 | 13.0 | 0.00 | 0.00 | 0.00 | 61 | 1018.0 |
| 20260906160024 | 78 | 33 | 6.1 | 8.7 | 0.00 | 0.00 | 0.00 | 62 | 1018.0 |
| 20260906155023 | 77 | 29 | 6.1 | 7.8 | 0.00 | 0.00 | 0.00 | 63 | 1018.3 |
| 20260906154024 | 78 | 7 | 6.1 | 8.7 | 0.00 | 0.00 | 0.00 | 62 | 1018.2 |
| 20260906153024 | 76 | 6 | 6.1 | 9.6 | 0.00 | 0.00 | 0.00 | 65 | 1018.1 |
| 20260906152023 | 76 | 18 | 7.8 | 10.4 | 0.00 | 0.00 | 0.00 | 64 | 1018.0 |
| 20260906151024 | 76 | 37 | 5.2 | 7.8 | 0.00 | 0.00 | 0.00 | 65 | 1017.9 |
| 20260906150024 | 75 | 38 | 6.1 | 8.7 | 0.00 | 0.00 | 0.00 | 66 | 1017.9 |
| 20260906145023 | 75 | 13 | 7.0 | 8.7 | 0.00 | 0.00 | 0.00 | 67 | 1018.0 |
| 20260906144024 | 75 | 17 | 7.8 | 12.2 | 0.00 | 0.00 | 0.00 | 67 | 1017.8 |
| 20260906143044 | 74 | 18 | 7.0 | 8.7 | 0.00 | 0.00 | 0.00 | 69 | 1017.8 |
| 20260906142023 | 73 | 25 | 7.0 | 11.3 | 0.00 | 0.00 | 0.00 | 69 | 1017.8 |
| 20260906141024 | 73 | 8 | 7.0 | 11.3 | 0.00 | 0.00 | 0.00 | 70 | 1017.7 |
| 20260906140044 | 72 | 27 | 6.1 | 7.8 | 0.00 | 0.00 | 0.00 | 72 | 1017.5 |
| 20260906135024 | 72 | 30 | 6.1 | 11.3 | 0.00 | 0.00 | 0.00 | 74 | 1017.4 |
| 20260906134105 | 71 | 10 | 7.0 | 8.7 | 0.00 | 0.00 | 0.00 | 75 | 1017.3 |
| 20260906133024 | 71 | 28 | 7.0 | 8.7 | 0.00 | 0.00 | 0.00 | 76 | 1017.4 |
| 20260906132024 | 71 | 17 | 6.1 | 8.7 | 0.00 | 0.00 | 0.00 | 77 | 1017.5 |
| 20260906131044 | 70 | 25 | 5.2 | 7.8 | 0.00 | 0.00 | 0.00 | 78 | 1017.5 |
| 20260906130044 | 70 | 15 | 5.2 | 8.7 | 0.00 | 0.00 | 0.00 | 78 | 1017.3 |
| 20260906125024 | 69 | 42 | 4.3 | 7.0 | 0.00 | 0.00 | 0.00 | 80 | 1017.1 |
| 20260906124024 | 69 | 35 | 4.3 | 7.0 | 0.00 | 0.00 | 0.00 | 81 | 1016.9 |
| 20260906123024 | 68 | 41 | 3.5 | 5.2 | 0.00 | 0.00 | 0.00 | 84 | 1016.8 |
| 20260906122024 | 67 | 25 | 4.3 | 7.0 | 0.00 | 0.00 | 0.00 | 87 | 1016.8 |
| 20260906121044 | 67 | 17 | 3.5 | 6.1 | 0.00 | 0.00 | 0.00 | 87 | 1016.7 |
| 20260906120024 | 66 | 20 | 4.3 | 7.8 | 0.00 | 0.00 | 0.00 | 88 | 1016.7 |
| 20260906115024 | 66 | 8 | 4.3 | 6.1 | 0.00 | 0.00 | 0.00 | 89 | 1016.6 |
| 20260906114024 | 66 | 17 | 4.3 | 6.1 | 0.00 | 0.00 | 0.00 | 89 | 1016.3 |
| 20260906113024 | 66 | 11 | 5.2 | 7.8 | 0.00 | 0.00 | 0.00 | 89 | 1016.2 |
| 20260906112045 | 67 | 25 | 5.2 | 6.1 | 0.00 | 0.00 | 0.00 | 89 | 1016.2 |
| 20260906111024 | 67 | 23 | 6.1 | 7.8 | 0.00 | 0.00 | 0.00 | 89 | 1016.1 |
| 20260906110024 | 67 | 17 | 5.2 | 9.6 | 0.00 | 0.00 | 0.00 | 89 | 1016.1 |
| 20260906105045 | 68 | 12 | 6.1 | 7.8 | 0.00 | 0.00 | 0.00 | 90 | 1016.0 |
| 20260906104024 | 68 | 24 | 5.2 | 7.0 | 0.00 | 0.00 | 0.00 | 90 | 1015.8 |
| 20260906103024 | 68 | 8 | 5.2 | 7.8 | 0.00 | 0.00 | 0.00 | 90 | 1015.6 |
| 20260906102024 | 69 | 25 | 5.2 | 7.0 | 0.00 | 0.00 | 0.00 | 91 | 1015.6 |
| 20260906101024 | 69 | 17 | 5.2 | 6.1 | 0.00 | 0.00 | 0.00 | 92 | 1015.6 |
| 20260906100024 | 69 | 28 | 6.1 | 8.7 | 0.00 | 0.00 | 0.00 | 92 | 1015.4 |
| 20260906095104 | 70 | 22 | 4.3 | 5.2 | 0.00 | 0.00 | 0.00 | 93 | 1015.3 |
| 20260906094024 | 70 | 6 | 5.2 | 7.8 | 0.00 | 0.00 | 0.00 | 93 | 1015.3 |
| 20260906093025 | 70 | 28 | 6.1 | 8.7 | 0.00 | 0.00 | 0.00 | 93 | 1015.3 |
| 20260906092024 | 70 | 10 | 5.2 | 8.7 | 0.00 | 0.00 | 0.00 | 94 | 1015.1 |
| 20260906091024 | 71 | 6 | 5.2 | 6.1 | 0.00 | 0.00 | 0.00 | 94 | 1014.9 |
| 20260906090025 | 71 | 10 | 5.2 | 7.8 | 0.00 | 0.00 | 0.00 | 95 | 1014.9 |
| 20260906085024 | 72 | 16 | 6.1 | 9.6 | 0.00 | 0.00 | 0.00 | 96 | 1014.8 |
| 20260906084025 | 72 | 5 | 4.3 | 7.0 | 0.00 | 0.00 | 0.00 | 96 | 1014.9 |
| 20260906083025 | 72 | 20 | 6.1 | 9.6 | 0.00 | 0.00 | 0.00 | 96 | 1014.8 |
| 20260906082024 | 72 | 10 | 5.2 | 7.8 | 0.00 | 0.00 | 0.00 | 95 | 1014.7 |
| 20260906081025 | 72 | 12 | 5.2 | 7.8 | 0.00 | 0.00 | 0.00 | 95 | 1014.8 |
| 20260906080024 | 72 | 10 | 6.1 | 8.7 | 0.00 | 0.00 | 0.00 | 95 | 1014.8 |
| 20260906075025 | 72 | 39 | 6.1 | 8.7 | 0.00 | 0.00 | 0.00 | 95 | 1014.9 |
| 20260906074026 | 73 | 25 | 5.2 | 7.0 | 0.00 | 0.00 | 0.00 | 95 | 1014.9 |
| 20260906073025 | 73 | 20 | 4.3 | 6.1 | 0.00 | 0.00 | 0.00 | 95 | 1014.9 |
| 20260906072025 | 73 | 20 | 6.1 | 7.8 | 0.00 | 0.00 | 0.00 | 95 | 1014.9 |
| 20260906071045 | 73 | 19 | 4.3 | 8.7 | 0.00 | 0.00 | 0.00 | 96 | 1014.8 |
| 20260906070025 | 73 | 26 | 4.3 | 6.1 | 0.00 | 0.00 | 0.00 | 96 | 1014.8 |
| 20260906065025 | 73 | 33 | 3.5 | 6.1 | 0.00 | 0.00 | 0.00 | 96 | 1014.8 |
| 20260906064045 | 73 | 15 | 2.6 | 4.3 | 0.00 | 0.00 | 0.00 | 96 | 1014.8 |
| 20260906063025 | 73 | 18 | 5.2 | 6.1 | 0.00 | 0.00 | 0.00 | 97 | 1014.8 |
| 20260906062025 | 73 | 22 | 4.3 | 7.0 | 0.00 | 0.00 | 0.00 | 97 | 1014.8 |
| 20260906061025 | 73 | 15 | 4.3 | 5.2 | 0.00 | 0.00 | 0.00 | 97 | 1014.8 |
| 20260906060025 | 73 | 12 | 4.3 | 6.1 | 0.00 | 0.00 | 0.00 | 96 | 1014.9 |
| 20260906055025 | 73 | 16 | 5.2 | 6.1 | 0.00 | 0.00 | 0.00 | 96 | 1014.9 |
| 20260906054025 | 73 | 3 | 3.5 | 5.2 | 0.00 | 0.00 | 0.00 | 96 | 1015.0 |
| 20260906053045 | 73 | 27 | 3.5 | 5.2 | 0.00 | 0.00 | 0.00 | 95 | 1014.9 |
| 20260906052045 | 73 | 21 | 4.3 | 6.1 | 0.00 | 0.00 | 0.00 | 95 | 1014.9 |
| 20260906051025 | 73 | 14 | 5.2 | 7.0 | 0.00 | 0.00 | 0.00 | 95 | 1014.7 |
| 20260906050025 | 73 | 12 | 3.5 | 6.1 | 0.00 | 0.00 | 0.00 | 95 | 1014.7 |
| 20260906045025 | 74 | 14 | 4.3 | 5.2 | 0.00 | 0.00 | 0.00 | 94 | 1014.5 |
| 20260906044025 | 74 | 14 | 3.5 | 5.2 | 0.00 | 0.00 | 0.00 | 94 | 1014.4 |
| 20260906043025 | 74 | 4 | 3.5 | 5.2 | 0.00 | 0.00 | 0.00 | 93 | 1014.3 |
| 20260906042025 | 74 | 11 | 3.5 | 5.2 | 0.00 | 0.00 | 0.00 | 92 | 1014.2 |
| 20260906041106 | 75 | 12 | 3.5 | 6.1 | 0.00 | 0.00 | 0.00 | 91 | 1014.1 |
| 20260906040026 | 75 | 21 | 4.3 | 6.1 | 0.00 | 0.00 | 0.00 | 91 | 1014.1 |
| 20260906035025 | 75 | 22 | 5.2 | 8.7 | 0.00 | 0.00 | 0.00 | 91 | 1014.0 |
| 20260906034025 | 75 | 22 | 5.2 | 7.0 | 0.00 | 0.00 | 0.00 | 91 | 1014.0 |
| 20260906033026 | 75 | 28 | 4.3 | 6.1 | 0.00 | 0.00 | 0.00 | 91 | 1014.0 |
| 20260906032025 | 76 | 33 | 4.3 | 6.1 | 0.00 | 0.00 | 0.00 | 91 | 1014.0 |
| 20260906031046 | 76 | 25 | 3.5 | 6.1 | 0.00 | 0.00 | 0.00 | 91 | 1014.2 |
| 20260906030025 | 76 | 18 | 4.3 | 6.1 | 0.00 | 0.00 | 0.00 | 90 | 1014.3 |
| 20260906025046 | 76 | 21 | 3.5 | 5.2 | 0.00 | 0.00 | 0.00 | 89 | 1014.2 |
| 20260906024026 | 77 | 21 | 3.5 | 5.2 | 0.00 | 0.00 | 0.00 | 88 | 1014.2 |
| 20260906023025 | 77 | 39 | 3.5 | 5.2 | 0.00 | 0.00 | 0.00 | 87 | 1014.2 |
| 20260906022025 | 77 | 5 | 2.6 | 2.6 | 0.00 | 0.00 | 0.00 | 86 | 1014.2 |
| 20260906021025 | 77 | 20 | 1.7 | 5.2 | 0.00 | 0.00 | 0.00 | 85 | 1014.1 |
| 20260906020025 | 77 | 24 | 2.6 | 4.3 | 0.00 | 0.00 | 0.00 | 83 | 1014.0 |
| 20260906015026 | 78 | 25 | 0.0 | 1.7 | 0.00 | 0.00 | 0.00 | 82 | 1013.9 |
| 20260906014026 | 78 | 13 | 3.5 | 6.1 | 0.00 | 0.00 | 0.00 | 81 | 1013.7 |
| 20260906013026 | 78 | 25 | 3.5 | 5.2 | 0.00 | 0.00 | 0.00 | 81 | 1013.6 |
| 20260906012026 | 79 | 19 | 5.2 | 7.0 | 0.00 | 0.00 | 0.00 | 81 | 1013.4 |
| 20260906011126 | 79 | 20 | 5.2 | 7.0 | 0.00 | 0.00 | 0.00 | 81 | 1013.3 |
| 20260906010106 | 79 | 13 | 4.3 | 6.1 | 0.00 | 0.00 | 0.00 | 83 | 1013.3 |
| 20260906005025 | 80 | 25 | 3.5 | 5.2 | 0.00 | 0.00 | 0.00 | 83 | 1013.1 |
| 20260906004025 | 80 | 21 | 6.1 | 7.8 | 0.00 | 0.00 | 0.00 | 81 | 1012.9 |
| 20260906003026 | 81 | 14 | 7.0 | 8.7 | 0.00 | 0.00 | 0.00 | 82 | 1012.7 |
| 20260906002026 | 81 | 9 | 3.5 | 9.6 | 0.00 | 0.00 | 0.00 | 87 | 1012.6 |
| 20260906001025 | 82 | 0.0 | 0.0 | 0.00 | 0.00 | 0.00 | 85 | 1012.3 | |
| 20260906000026 | 83 | 0.0 | 0.0 | 0.00 | 0.00 | 0.00 | 84 | 1012.3 | |
| 20260905235026 | 84 | 230 | 0.9 | 1.7 | 0.00 | 0.00 | 0.00 | 80 | 1012.6 |
| 20260905234025 | 85 | 0.0 | 0.0 | 0.00 | 0.00 | 0.00 | 79 | 1012.7 | |
| 20260905233026 | 85 | 0.0 | 0.0 | 0.00 | 0.00 | 0.00 | 78 | 1012.5 | |
| 20260905232025 | 86 | 0.0 | 0.0 | 0.00 | 0.00 | 0.00 | 77 | 1012.8 | |
| 20260905231026 | 86 | 0.0 | 0.0 | 0.00 | 0.00 | 0.00 | 76 | 1012.8 | |
| 20260905230026 | 87 | 0.0 | 0.0 | 0.00 | 0.00 | 0.00 | 75 | 1013.0 | |
| 20260905225045 | 87 | 0.0 | 0.0 | 0.00 | 0.00 | 0.00 | 74 | 1013.0 | |
| 20260905224026 | 87 | 0.0 | 0.0 | 0.00 | 0.00 | 0.00 | 75 | 1012.8 | |
| 20260905223026 | 87 | 0.0 | 0.0 | 0.00 | 0.00 | 0.00 | 72 | 1012.4 | |
| 20260905222026 | 88 | 0.0 | 0.0 | 0.00 | 0.00 | 0.00 | 71 | 1012.5 | |
| 20260905221026 | 89 | 0.0 | 0.0 | 0.00 | 0.00 | 0.00 | 68 | 1012.5 | |
| 20260905220026 | 91 | 0.0 | 0.0 | 0.00 | 0.00 | 0.00 | 63 | 1012.5 | |
| 20260905215026 | 93 | 297 | 0.9 | 2.6 | 0.00 | 0.00 | 0.00 | 58 | 1012.4 |
| 20260905214026 | 94 | 278 | 1.7 | 3.5 | 0.00 | 0.00 | 0.00 | 55 | 1012.4 |
| 20260905213026 | 95 | 328 | 0.9 | 1.7 | 0.00 | 0.00 | 0.00 | 55 | 1012.5 |
| 20260905212026 | 96 | 347 | 2.6 | 5.2 | 0.00 | 0.00 | 0.00 | 53 | 1012.6 |
| 20260905211525 | 95 | 268 | 0.9 | 2.6 | 0.00 | 0.00 | 0.00 | 54 | 1012.7 |
| 20260905210526 | 96 | 345 | 1.7 | 3.5 | 0.00 | 0.00 | 0.00 | 53 | 1012.8 |
| 20260905205526 | 96 | 9 | 0.9 | 2.6 | 0.00 | 0.00 | 0.00 | 53 | 1013.0 |
| 20260905204527 | 95 | 247 | 1.7 | 4.3 | 0.00 | 0.00 | 0.00 | 52 | 1013.1 |
| 20260905203526 | 95 | 332 | 2.6 | 4.3 | 0.00 | 0.00 | 0.00 | 52 | 1013.1 |
| 20260905202526 | 95 | 229 | 3.5 | 6.1 | 0.00 | 0.00 | 0.00 | 56 | 1013.2 |
| 20260905201526 | 94 | 211 | 4.3 | 7.0 | 0.00 | 0.00 | 0.00 | 53 | 1013.4 |
| 20260905200526 | 94 | 217 | 5.2 | 7.0 | 0.00 | 0.00 | 0.00 | 53 | 1013.5 |
| 20260905195546 | 94 | 210 | 3.5 | 7.0 | 0.00 | 0.00 | 0.00 | 52 | 1013.6 |
| 20260905194526 | 94 | 235 | 4.3 | 7.8 | 0.00 | 0.00 | 0.00 | 54 | 1013.6 |
| 20260905193526 | 93 | 210 | 2.6 | 5.2 | 0.00 | 0.00 | 0.00 | 53 | 1013.8 |
| 20260905192526 | 93 | 220 | 4.3 | 6.1 | 0.00 | 0.00 | 0.00 | 55 | 1013.9 |
| 20260905191526 | 92 | 205 | 3.5 | 5.2 | 0.00 | 0.00 | 0.00 | 55 | 1014.0 |
| 20260905190526 | 91 | 217 | 5.2 | 8.7 | 0.00 | 0.00 | 0.00 | 58 | 1014.1 |